Temperature
26 27 26 27 28 29 29 29 29 30 31 31 30 30 30 30 30 29 28 27 27 26 25 24 23 22 21 20 20 19 19 19 19 18 18 18 18 18 17 17 17 17 17 17
27 26 28 29 29 29 29 29 29 30 31 30 30 30 30 30 30 29 28 27 26 25 24 23 22 21 20 20 19 19 19 19 18 18 18 18 18 17 17 17 17 17 17 17
26 28 29 29 29 28 28 28 29 29 30 30 29 29 29 30 29 29 28 27 26 25 24 23 22 21 20 19 19 19 18 18 18 18 18 18 17 17 17 17 17 17 17 17
27 29 29 28 28 28 28 29 29 29 29 28 28 27 28 29 29 28 28 27 26 25 24 23 22 21 20 19 19 18 18 18 18 18 18 18 17 17 17 17 17 16 16 16
27 28 28 28 28 29 29 30 29 29 28 28 28 27 27 28 27 28 28 27 26 25 24 23 22 21 20 19 19 18 18 18 18 18 18 17 17 17 17 17 17 16 16 16
28 29 29 29 29 30 29 29 29 28 28 26 28 27 26 27 27 27 27 27 26 25 24 23 22 21 20 20 19 18 18 18 18 18 17 17 17 17 17 17 16 16 16 16
27 28 29 29 28 29 28 27 26 25 25 26 28 27 26 27 28 27 27 26 25 24 24 22 22 21 20 20 19 18 18 18 18 18 17 17 17 17 17 17 16 16 16 16
26 26 28 28 28 27 28 27 25 24 25 26 27 26 26 27 27 27 26 25 24 24 23 22 21 21 20 19 19 18 18 18 18 17 17 17 17 16 16 16 16 16 16 16
26 26 28 28 28 28 27 27 28 27 26 26 26 26 26 27 26 26 26 25 24 23 23 22 21 21 20 19 19 18 18 18 18 17 17 17 17 16 16 16 16 16 15 15
26 25 27 28 28 28 28 27 27 26 24 24 25 25 25 24 25 25 25 24 24 23 23 22 21 21 20 19 19 18 18 18 17 17 17 16 16 16 16 16 16 15 15 15
26 24 25 27 26 26 27 26 26 26 26 25 24 24 25 24 24 24 24 24 23 23 22 21 21 20 19 19 19 18 17 17 17 16 16 16 16 16 16 16 15 15 15 15
25 24 24 25 27 28 27 26 26 24 24 25 24 23 25 24 24 24 23 23 22 22 21 21 20 20 19 19 18 18 17 17 16 16 16 16 16 16 16 15 15 15 15 15
24 23 22 23 25 26 26 26 26 25 24 24 24 23 24 24 23 23 23 22 22 21 21 20 20 19 19 18 18 17 17 16 16 16 16 15 15 15 15 15 15 15 15 14
23 22 22 22 23 24 24 25 25 25 24 23 24 23 23 23 23 23 22 22 21 21 20 20 19 19 18 18 18 17 17 16 16 16 15 15 15 15 15 15 15 14 14 14
22 22 22 23 24 24 24 24 25 24 24 24 24 23 23 22 23 22 22 21 21 20 20 19 19 18 18 17 17 17 16 16 16 16 15 15 15 15 14 14 14 14 14 14
22 21 22 22 23 23 23 24 24 24 24 24 23 23 22 22 22 22 21 20 20 19 19 18 18 17 17 17 16 16 16 16 15 15 15 15 14 14 14 14 14 14 14 14
21 20 20 21 22 22 22 23 23 23 24 23 23 22 21 21 21 20 20 19 19 19 18 18 17 16 16 16 16 15 15 15 15 15 15 14 14 14 14 14 14 14 13 13
20 19 19 20 20 19 21 23 23 22 22 23 22 21 21 20 20 19 19 19 18 18 18 17 16 16 15 15 15 15 15 15 15 15 14 14 14 14 14 14 14 14 13 13
20 19 19 19 19 20 21 21 22 22 21 22 21 21 21 20 19 19 18 18 17 17 17 16 15 15 15 15 15 14 14 15 14 14 14 14 14 14 14 13 13 13 13 13
21 20 19 19 18 19 19 20 21 21 19 20 20 20 19 19 19 18 17 17 16 16 16 16 15 15 14 14 14 14 14 14 14 14 14 14 14 13 13 13 13 13 13 13
19 19 19 18 18 18 18 19 20 19 18 18 18 18 18 18 17 16 16 16 15 15 15 15 15 14 14 14 14 14 14 14 14 14 14 14 13 13 13 13 13 13 13 13
18 18 18 18 18 17 18 18 18 17 17 17 17 16 16 16 16 15 15 15 15 15 14 14 14 14 14 13 13 13 13 13 13 13 13 13 13 13 13 13 12 12 13 12
18 17 17 17 17 16 16 16 16 16 16 16 16 16 15 15 15 15 14 14 14 14 14 14 14 13 13 13 13 13 13 13 13 13 13 13 13 12 12 12 12 12 12 12
17 18 17 16 16 16 16 15 15 15 15 15 15 15 15 15 15 14 14 14 14 13 13 13 13 13 12 12 12 12 12 12 12 12 12 12 12 12 12 12 12 12 12 12
16 16 16 15 15 15 15 15 15 15 15 15 14 14 14 14 14 14 13 13 13 13 13 13 13 12 12 12 12 12 12 12 12 12 12 12 12 12 12 12 12 12 12 12
15 15 15 15 15 15 14 14 14 14 14 14 14 14 14 14 13 13 13 13 13 13 13 12 12 12 12 12 12 12 12 12 12 11 11 12 12 12 12 12 12 12 12 12
Wind_Speed
15 15 16 17 18 18 16 16 15 13 11 12 12 11 9 8 9 9 9 10 8 7 7 9 10 11 11 10 9 7 7 7 5 5 5 4 4 3 3 3 4 5 3 2
15 19 19 18 17 17 18 18 17 12 9 9 10 11 9 10 10 9 9 9 10 9 7 8 10 10 10 10 9 7 6 7 6 5 4 4 4 3 4 3 3 4 4 3
20 16 18 18 17 16 17 17 15 13 10 10 11 13 12 9 9 8 8 8 9 11 10 9 10 10 10 10 10 8 7 6 5 5 4 3 3 3 3 4 3 3 4 3
18 18 16 15 16 16 16 15 15 15 13 10 10 11 10 9 9 8 7 7 9 10 10 10 11 11 10 10 10 8 7 6 5 5 5 6 5 4 4 4 4 4 4 3
15 16 16 17 17 16 15 14 15 15 15 14 12 11 8 8 8 8 9 8 7 8 10 9 9 10 10 10 10 9 8 6 6 5 6 5 4 4 3 4 4 5 4 3
17 16 15 16 16 15 13 13 13 13 13 16 15 13 8 6 8 8 7 6 6 8 9 9 8 7 9 10 10 9 8 7 6 5 5 5 5 4 4 5 5 4 3 3
18 18 17 13 14 14 12 11 10 11 12 14 13 12 6 4 7 7 7 5 5 7 7 8 8 8 7 9 10 9 9 7 6 5 5 5 5 5 4 4 4 4 3 3
15 14 15 14 14 13 14 15 12 11 12 11 11 9 4 2 3 4 6 6 6 7 7 7 8 9 8 8 8 8 8 7 7 6 5 5 5 4 3 3 3 3 2 3
10 10 11 11 12 14 15 16 16 15 15 12 8 7 4 2 3 5 6 6 6 7 7 8 7 8 7 8 8 8 8 7 7 6 5 5 5 4 3 3 3 2 2 3
11 12 11 10 10 14 15 12 10 13 12 12 9 9 7 6 5 5 5 5 5 6 6 5 6 6 7 7 7 8 8 7 7 6 6 5 5 4 4 3 3 3 2 3
9 11 12 11 12 12 12 13 11 10 11 11 11 5 0 5 4 4 5 5 6 5 6 5 4 5 5 6 8 7 7 6 6 6 5 5 5 5 5 4 3 3 3 3
7 8 11 12 11 12 13 13 12 10 11 11 10 6 1 2 4 4 3 3 5 5 5 6 5 5 5 5 6 6 6 6 6 5 5 5 5 5 5 4 4 3 3 2
4 6 9 11 11 12 12 13 13 11 10 11 12 6 2 3 2 4 4 4 4 5 4 5 5 5 5 5 5 5 6 6 5 5 6 5 5 5 4 4 4 4 3 2
4 8 11 13 9 7 11 13 12 11 11 12 12 7 3 1 2 3 4 4 4 5 5 4 4 4 4 3 4 4 4 5 6 5 5 5 4 4 4 4 4 4 3 3
5 11 14 15 14 14 14 13 13 13 13 13 10 7 5 3 2 3 4 4 4 5 4 3 4 3 3 3 3 3 3 4 4 5 4 4 4 4 4 3 3 3 3 3
6 9 12 15 15 14 15 15 15 16 13 13 11 7 2 2 1 1 3 3 3 3 4 4 4 4 3 3 3 3 3 4 4 4 4 4 4 4 4 4 4 4 3 2
7 8 11 13 12 13 15 13 11 11 10 10 10 5 2 2 3 2 1 2 2 2 3 3 3 3 3 2 2 2 3 3 3 4 4 4 5 5 5 5 4 4 3 3
8 8 7 11 11 14 6 4 7 8 5 4 3 2 2 1 1 1 1 1 1 2 3 3 4 3 3 3 2 2 2 3 3 3 4 4 5 5 4 4 4 4 3 2
10 9 7 8 11 11 6 5 7 6 4 2 2 2 0 1 1 2 3 3 3 2 3 4 4 4 3 3 2 2 1 2 3 3 3 3 3 4 4 3 3 3 3 2
11 10 9 9 10 9 3 5 6 4 4 2 2 2 2 1 2 1 3 4 3 3 3 4 5 5 4 3 3 3 2 1 1 2 3 2 2 3 3 3 3 2 2 3
10 10 12 12 10 5 5 7 4 4 1 4 5 5 4 3 2 3 4 3 2 3 3 4 4 4 4 4 3 2 1 1 0 1 2 3 2 2 3 2 2 2 3 3
6 7 9 9 9 5 5 5 2 2 5 6 5 5 5 4 3 4 3 3 3 3 2 3 4 4 4 3 3 2 1 1 1 1 2 2 2 2 2 3 2 3 3 3
4 3 3 3 3 2 3 3 2 3 3 3 3 3 3 3 3 3 3 2 2 1 2 2 3 4 3 3 2 2 1 1 1 2 1 1 2 1 1 2 2 2 2 3
3 2 3 3 1 1 3 3 3 3 3 2 2 3 3 3 3 2 2 2 1 1 1 2 3 3 3 2 2 1 1 1 1 1 1 1 1 2 2 1 2 2 2 2
6 4 4 5 5 4 3 3 4 4 4 4 4 4 4 4 3 2 1 2 0 1 1 1 2 3 3 2 2 2 2 1 1 1 1 1 1 2 2 1 1 2 1 2
6 5 5 5 3 3 4 3 4 5 4 4 4 4 4 4 4 3 2 2 1 1 0 1 2 3 3 2 2 2 2 2 2 1 1 1 2 2 2 2 1 2 2 3
Wind_Direction
216 224 229 231 234 247 255 260 259 252 243 237 241 238 222 211 214 205 195 193 188 188 178 155 149 146 142 142 145 147 152 149 156 161 167 168 174 177 163 156 148 154 165 177
221 227 235 241 243 247 254 260 263 259 241 244 252 253 235 217 217 213 203 192 187 180 170 154 156 154 153 152 151 151 152 158 169 164 171 169 164 172 155 154 151 157 164 184
229 235 230 238 243 245 251 255 266 270 259 245 252 253 247 220 211 203 198 191 186 174 170 166 164 160 162 158 158 162 160 165 170 160 166 156 150 160 159 162 164 168 172 174
237 245 241 240 245 245 250 252 261 268 265 254 241 258 246 221 207 196 196 201 190 176 169 169 167 166 166 162 161 159 159 163 167 166 174 174 174 177 172 162 165 165 165 172
240 241 243 241 243 245 251 258 257 263 266 264 252 250 245 218 211 206 200 198 189 174 170 168 170 167 165 163 163 161 156 161 170 179 182 187 178 177 166 161 161 165 168 177
251 250 245 245 247 247 251 257 260 260 261 256 252 251 247 225 212 209 192 190 181 164 163 160 161 160 165 165 162 158 158 163 168 180 182 189 182 176 174 171 167 176 172 180
243 244 245 243 248 243 244 245 245 239 239 248 250 245 245 233 207 197 182 172 166 154 153 154 161 168 174 167 163 163 162 165 169 179 184 185 184 182 184 183 178 184 174 175
244 240 232 228 234 240 233 234 238 243 246 255 249 238 212 212 168 148 151 150 151 150 154 159 167 171 175 167 161 159 158 164 169 177 184 177 181 187 183 189 185 186 190 183
261 254 232 226 230 239 240 238 247 256 265 267 251 237 217 176 140 136 147 157 161 160 164 165 168 167 167 167 159 159 159 163 169 173 173 175 176 178 173 171 181 190 200 182
266 277 263 237 231 233 244 248 250 253 261 266 254 235 217 178 171 165 159 156 155 159 160 155 158 161 166 168 158 156 157 164 167 173 182 178 173 173 168 168 169 174 183 172
266 270 266 240 226 233 237 243 247 256 259 263 268 263 214 166 177 174 170 161 158 151 150 152 160 152 155 161 160 155 154 160 168 175 177 172 173 173 170 171 171 171 175 163
260 264 269 257 248 242 241 243 244 251 259 267 270 266 315 134 132 137 153 150 147 150 148 151 150 149 156 155 152 150 155 169 174 173 172 171 168 168 168 169 167 165 171 183
301 266 263 256 247 233 240 243 245 247 256 261 262 250 201 79 91 121 131 123 123 127 127 132 137 141 152 152 149 153 164 170 171 169 168 166 171 170 167 170 169 168 173 185
279 260 257 258 262 264 255 254 256 250 250 252 258 245 233 242 211 150 128 120 123 126 120 126 131 135 136 137 145 153 164 164 164 160 161 166 171 175 175 179 175 172 178 190
263 260 260 264 269 274 267 259 254 254 255 260 263 244 225 230 205 140 136 134 138 127 122 119 118 112 126 132 135 142 145 138 139 144 150 158 157 163 169 177 171 171 184 194
238 261 267 265 261 264 268 262 255 251 249 251 257 264 277 291 340 144 145 146 135 133 132 124 113 118 117 125 137 133 134 136 139 148 159 161 161 163 170 179 177 176 184 192
243 248 265 266 265 261 254 260 255 254 249 244 252 254 249 316 334 355 83 134 166 141 121 112 110 108 99 96 107 129 138 130 143 152 159 170 179 175 175 185 175 177 186 196
254 265 263 264 267 256 250 256 256 245 248 244 232 201 210 279 4 19 1 140 140 132 125 110 107 110 92 77 88 105 116 134 150 158 174 186 178 171 173 182 175 179 185 196
231 244 256 256 256 255 255 267 273 259 248 269 260 242 321 58 32 32 33 61 70 68 93 104 123 124 104 100 99 102 101 150 169 175 180 180 174 166 170 176 179 179 187 202
224 223 243 256 260 261 279 310 315 284 236 351 20 33 27 1 295 6 45 54 63 56 80 104 117 124 123 113 109 119 131 143 167 176 164 152 157 159 159 169 170 175 185 195
222 223 235 251 256 263 318 330 318 250 275 26 33 39 38 10 20 44 44 48 64 81 92 110 123 127 121 116 114 112 97 71 102 133 147 149 142 151 157 154 155 168 190 191
236 235 234 244 248 255 350 338 335 38 43 37 30 33 34 29 53 46 35 40 40 74 86 103 113 112 113 120 126 118 90 46 50 83 107 126 127 147 152 153 179 189 198 198
262 274 278 280 257 42 25 15 46 56 39 25 16 17 24 24 31 39 31 29 29 89 94 100 113 115 111 113 117 125 95 56 46 64 88 115 129 135 146 175 194 198 204 215
273 310 283 286 260 345 350 13 353 6 347 344 6 348 351 2 12 27 25 2 21 102 106 107 125 129 130 133 141 133 121 106 101 83 88 137 162 160 156 185 201 198 206 219
306 303 281 270 272 296 319 335 335 341 340 344 350 343 349 351 352 1 345 326 261 147 133 161 159 158 163 161 162 154 151 149 168 164 162 178 189 167 152 184 238 210 201 199
283 282 277 274 278 291 293 307 327 329 330 326 329 333 338 339 337 343 339 330 306 102 172 230 192 177 166 168 173 170 166 167 184 190 202 219 212 179 181 193 189 39 165 155
Height
1462 1463 1462 1457 1453 1452 1451 1452 1452 1447 1439 1442 1446 1447 1447 1449 1452 1455 1459 1464 1467 1471 1473 1476 1478 1481 1483 1486 1488 1491 1493 1495 1497 1498 1500 1502 1503 1506 1507 1509 1510 1511 1512 1514
1458 1458 1452 1448 1447 1448 1449 1451 1449 1441 1437 1441 1445 1445 1443 1445 1448 1451 1455 1459 1463 1468 1471 1474 1477 1479 1482 1484 1487 1489 1491 1493 1495 1497 1499 1501 1503 1505 1506 1508 1509 1510 1511 1512
1453 1447 1444 1445 1446 1449 1449 1449 1447 1445 1440 1439 1445 1448 1443 1441 1445 1448 1452 1455 1460 1464 1468 1471 1475 1478 1480 1482 1484 1487 1489 1491 1493 1495 1497 1500 1502 1503 1505 1506 1507 1509 1510 1511
1446 1441 1440 1443 1444 1445 1449 1441 1442 1443 1446 1448 1447 1460 1446 1440 1442 1445 1449 1453 1456 1461 1465 1469 1472 1476 1478 1480 1482 1484 1487 1489 1491 1493 1495 1497 1499 1501 1503 1504 1506 1507 1508 1509
1442 1438 1439 1442 1441 1439 1441 1437 1439 1441 1444 1448 1445 1454 1449 1439 1445 1444 1446 1450 1453 1457 1462 1466 1470 1473 1476 1478 1481 1483 1485 1487 1489 1491 1493 1496 1497 1499 1501 1503 1504 1505 1506 1508
1437 1433 1433 1434 1433 1434 1434 1438 1439 1441 1444 1458 1446 1450 1452 1442 1442 1442 1443 1448 1451 1455 1459 1464 1468 1471 1474 1477 1479 1481 1483 1485 1487 1489 1491 1493 1495 1497 1499 1500 1502 1503 1504 1505
1439 1433 1430 1431 1435 1434 1436 1447 1460 1463 1462 1457 1440 1444 1446 1436 1433 1437 1441 1446 1450 1454 1458 1462 1466 1469 1472 1475 1477 1479 1481 1483 1485 1487 1489 1491 1493 1495 1497 1498 1500 1501 1502 1503
1441 1439 1429 1428 1433 1437 1437 1443 1460 1469 1464 1451 1439 1444 1442 1433 1433 1436 1441 1446 1450 1454 1457 1461 1464 1467 1470 1472 1475 1477 1478 1481 1483 1485 1486 1488 1490 1493 1494 1496 1498 1499 1500 1501
1437 1436 1423 1424 1427 1432 1437 1437 1434 1444 1446 1452 1446 1442 1437 1433 1434 1437 1440 1444 1448 1452 1456 1459 1462 1465 1468 1470 1473 1475 1477 1479 1481 1483 1485 1487 1488 1490 1492 1494 1495 1497 1498 1499
1433 1440 1427 1423 1425 1427 1429 1432 1437 1444 1457 1460 1450 1447 1445 1439 1439 1439 1441 1444 1448 1451 1455 1458 1461 1464 1466 1468 1471 1473 1475 1477 1479 1481 1483 1484 1486 1488 1490 1491 1492 1494 1496 1497
1433 1442 1435 1427 1430 1432 1432 1435 1437 1440 1441 1454 1458 1452 1434 1438 1438 1439 1440 1444 1447 1450 1454 1458 1460 1463 1465 1467 1469 1472 1473 1476 1477 1479 1481 1483 1484 1486 1487 1489 1490 1492 1493 1495
1434 1438 1440 1432 1423 1423 1427 1431 1436 1449 1449 1444 1450 1454 1433 1434 1436 1439 1442 1444 1447 1450 1453 1456 1459 1462 1464 1466 1468 1470 1472 1474 1475 1477 1479 1480 1482 1483 1485 1486 1488 1489 1491 1493
1439 1443 1451 1444 1436 1428 1428 1427 1429 1435 1441 1446 1451 1452 1434 1435 1438 1440 1443 1445 1447 1450 1452 1455 1458 1460 1462 1465 1467 1468 1470 1472 1473 1475 1476 1478 1480 1481 1482 1484 1486 1487 1489 1490
1441 1444 1449 1450 1441 1433 1434 1431 1430 1435 1443 1445 1442 1444 1440 1438 1439 1440 1443 1446 1448 1450 1452 1454 1457 1459 1461 1463 1465 1467 1469 1470 1472 1473 1475 1476 1477 1479 1480 1482 1484 1485 1487 1488
1441 1444 1441 1437 1433 1431 1430 1430 1430 1433 1434 1439 1437 1438 1438 1440 1439 1441 1444 1446 1448 1449 1452 1454 1456 1459 1461 1463 1464 1466 1467 1468 1470 1471 1473 1474 1475 1477 1478 1480 1481 1482 1484 1485
1441 1445 1441 1439 1432 1431 1431 1428 1428 1429 1429 1432 1434 1437 1436 1438 1439 1441 1443 1446 1447 1449 1451 1454 1456 1458 1460 1462 1463 1464 1465 1466 1468 1469 1471 1473 1474 1475 1476 1478 1479 1480 1481 1483
1441 1445 1447 1444 1434 1434 1437 1429 1427 1428 1427 1430 1435 1437 1438 1440 1441 1442 1443 1446 1448 1449 1451 1454 1456 1457 1459 1461 1462 1463 1464 1465 1466 1467 1469 1471 1472 1474 1475 1476 1477 1478 1479 1480
1443 1445 1446 1443 1443 1449 1433 1425 1425 1427 1428 1428 1431 1434 1438 1441 1442 1444 1445 1446 1448 1450 1451 1453 1455 1457 1458 1460 1461 1463 1463 1464 1465 1466 1468 1470 1471 1472 1473 1475 1475 1476 1477 1478
1438 1444 1447 1445 1444 1438 1432 1429 1427 1429 1432 1431 1433 1435 1438 1441 1441 1444 1446 1448 1449 1450 1451 1452 1455 1456 1458 1459 1460 1461 1462 1463 1464 1465 1466 1468 1469 1470 1472 1473 1473 1474 1475 1476
1434 1439 1445 1443 1447 1445 1438 1430 1428 1430 1437 1436 1435 1437 1439 1441 1443 1446 1447 1448 1448 1450 1451 1452 1454 1456 1457 1458 1460 1460 1461 1461 1463 1464 1465 1466 1467 1469 1469 1470 1471 1472 1473 1474
1437 1439 1441 1442 1444 1441 1437 1432 1431 1441 1444 1440 1440 1440 1442 1444 1446 1448 1447 1448 1448 1449 1451 1452 1453 1455 1456 1458 1459 1460 1460 1461 1462 1463 1464 1465 1466 1467 1468 1469 1470 1470 1471 1472
1438 1439 1440 1440 1444 1447 1439 1436 1440 1443 1442 1442 1443 1444 1445 1446 1446 1447 1448 1447 1448 1449 1450 1452 1453 1454 1456 1457 1459 1459 1460 1461 1462 1462 1463 1464 1465 1466 1467 1467 1468 1469 1469 1470
1437 1439 1439 1442 1445 1443 1443 1443 1443 1444 1444 1445 1445 1446 1447 1446 1447 1447 1447 1448 1449 1450 1451 1451 1452 1454 1455 1456 1458 1459 1460 1461 1461 1462 1462 1462 1463 1465 1465 1466 1466 1467 1468 1468
1437 1438 1440 1443 1443 1444 1444 1445 1445 1445 1446 1446 1446 1446 1446 1446 1447 1447 1448 1448 1449 1450 1450 1451 1452 1453 1454 1456 1457 1458 1459 1460 1460 1461 1461 1461 1462 1463 1464 1465 1465 1466 1466 1466
1443 1442 1442 1444 1444 1444 1443 1445 1445 1445 1445 1445 1445 1446 1446 1446 1446 1447 1447 1448 1448 1449 1450 1450 1451 1452 1453 1455 1456 1457 1458 1459 1459 1460 1461 1461 1461 1462 1463 1463 1463 1464 1464 1465
1444 1444 1444 1444 1445 1445 1445 1446 1446 1445 1445 1446 1446 1446 1446 1446 1446 1447 1447 1448 1448 1448 1449 1450 1450 1451 1453 1454 1455 1456 1457 1458 1458 1459 1460 1460 1461 1461 1462 1462 1462 1462 1463 1464